DW3930 Weather Reports


time (UTC)temp
F
wind
direction
speed
knots
gust
knots
rain 1hr
in
rain 24hr
in
rain mn
in
humidity
%
barometer
mb
20260506051004 48 227 2.6 7.8 0.01 0.06 0.01 78 1337.3
20260506050515 48 227 2.6 6.1 0.01 0.06 0.01 67 1007.3
20260506050504 48 226 1.7 6.1 0.01 0.06 0.01 78 1337.2
20260506045015 48 248 2.6 6.1 0.02 0.06 0.01 69 1007.5
20260506045004 48 245 2.6 6.1 0.02 0.06 0.01 79 1337.4
20260506044504 48 230 1.7 6.1 0.02 0.06 0.01 79 1337.5
20260506044015 48 188 2.6 7.0 0.02 0.06 0.01 69 1007.5
20260506044004 48 187 2.6 6.1 0.02 0.06 0.01 79 1337.4
20260506043514 48 178 3.5 7.8 0.02 0.06 0.00 69 1007.4
20260506043504 48 177 4.3 7.0 0.02 0.06 0.00 79 1337.2
20260506043015 48 175 3.5 7.8 0.02 0.06 0.00 69 1007.4
20260506043005 48 175 4.3 9.6 0.02 0.06 0.00 79 1337.4
20260506042525 48 182 3.5 7.8 0.02 0.06 0.00 79 1337.4
20260506042514 48 183 3.5 7.8 0.02 0.06 0.00 69 1007.5
20260506042015 48 188 4.3 7.0 0.02 0.06 0.00 69 1007.5
20260506042004 48 187 4.3 7.0 0.02 0.06 0.00 79 1337.5
20260506041515 48 190 4.3 7.0 0.02 0.06 0.00 70 1007.7
20260506041504 48 189 4.3 7.0 0.02 0.06 0.00 80 1337.8
20260506041025 48 191 4.3 7.0 0.02 0.06 0.00 80 1337.8
20260506041014 48 192 4.3 7.8 0.02 0.06 0.00 70 1007.7
20260506040525 48 192 4.3 7.8 0.02 0.06 0.00 80 1337.8
20260506040515 48 192 4.3 7.8 0.02 0.06 0.00 70 1007.7
20260506040017 48 192 4.3 7.8 0.02 0.06 0.00 70 1007.7
20260506040005 48 192 4.3 7.8 0.02 0.06 0.00 80 1337.7
20260506035515 48 198 4.3 7.8 0.01 0.05 0.05 70 1007.8
20260506035504 48 198 4.3 9.6 0.01 0.05 0.05 80 1337.8
20260506035014 48 208 4.3 7.0 0.01 0.05 0.05 70 1007.9
20260506035004 48 208 4.3 7.0 0.01 0.05 0.05 81 1338.0
20260506034515 48 217 3.5 6.1 0.01 0.05 0.05 71 1007.9
20260506034504 48 216 3.5 6.1 0.01 0.05 0.05 81 1338.0
20260506034014 48 219 2.6 6.1 0.00 0.04 0.04 71 1007.9
20260506034004 48 219 2.6 6.1 0.00 0.04 0.04 81 1337.9
20260506033515 48 217 0.9 4.3 0.00 0.04 0.04 71 1008.0
20260506033503 48 217 0.9 4.3 0.00 0.04 0.04 81 1338.0
20260506033005 48 216 1.7 3.5 0.00 0.04 0.04 81 1338.3
20260506032515 48 213 2.6 7.0 0.00 0.04 0.04 71 1008.1
20260506032503 48 212 2.6 7.0 0.00 0.04 0.04 81 1338.3
20260506032025 48 211 2.6 6.1 0.00 0.04 0.04 81 1338.1
20260506032015 48 212 2.6 6.1 0.00 0.04 0.04 71 1008.0
20260506031514 48 217 2.6 6.1 0.00 0.04 0.04 71 1008.2
20260506031503 48 216 1.7 6.1 0.00 0.04 0.04 81 1338.4
20260506031014 48 221 2.6 6.1 0.00 0.04 0.04 71 1008.1
20260506031004 48 221 1.7 4.3 0.00 0.04 0.04 81 1338.3
20260506030514 48 222 2.6 6.1 0.00 0.04 0.04 71 1008.1
20260506030504 49 221 2.6 6.1 0.00 0.04 0.04 81 1338.2
20260506030015 49 223 2.6 6.1 0.00 0.04 0.04 71 1008.0
20260506030004 49 222 2.6 4.3 0.00 0.04 0.04 81 1338.1
20260506025525 49 212 2.6 4.3 0.00 0.04 0.04 81 1338.0
20260506025514 49 211 2.6 6.1 0.00 0.04 0.04 71 1007.9
20260506025014 49 189 3.5 6.1 0.00 0.04 0.04 73 1007.8
20260506025004 49 188 2.6 6.1 0.00 0.04 0.04 81 1337.9
20260506024514 49 179 3.5 7.0 0.00 0.04 0.04 73 1007.7
20260506024504 49 180 3.5 6.1 0.00 0.04 0.04 82 1337.7
20260506024014 49 178 3.5 7.0 0.00 0.04 0.04 73 1007.6
20260506024004 49 178 3.5 7.8 0.00 0.04 0.04 82 1337.7
20260506023514 49 194 3.5 7.0 0.00 0.04 0.04 73 1007.7
20260506023504 49 194 3.5 6.1 0.00 0.04 0.04 82 1337.7
20260506023015 49 213 3.5 7.0 0.00 0.04 0.04 73 1007.6
20260506023004 49 212 3.5 7.8 0.00 0.04 0.04 82 1337.6
20260506022514 49 203 3.5 7.0 0.00 0.04 0.04 73 1007.7
20260506022504 49 202 4.3 6.1 0.00 0.04 0.04 82 1337.8
20260506022014 49 186 4.3 7.8 0.00 0.04 0.04 73 1007.7
20260506022004 49 185 4.3 7.0 0.00 0.04 0.04 82 1337.8
20260506021514 49 177 4.3 7.8 0.00 0.04 0.04 74 1007.8
20260506021504 49 178 4.3 9.6 0.00 0.04 0.04 83 1337.8
20260506021015 49 165 4.3 7.8 0.00 0.04 0.04 74 1007.7
20260506021004 49 164 5.2 7.8 0.00 0.04 0.04 83 1337.9
20260506020514 49 162 4.3 7.8 0.00 0.04 0.04 74 1007.7
20260506020504 50 162 4.3 9.6 0.00 0.04 0.04 83 1337.8
20260506020014 50 173 3.5 7.8 0.00 0.06 0.04 75 1007.8
20260506020004 50 174 3.5 9.6 0.00 0.06 0.04 83 1337.8
20260506015514 50 178 3.5 6.1 0.00 0.06 0.04 75 1007.9
20260506015504 50 178 3.5 6.1 0.00 0.06 0.04 84 1338.0
20260506015014 50 186 3.5 7.0 0.00 0.06 0.04 75 1007.8
20260506015004 50 185 3.5 7.0 0.00 0.06 0.04 84 1337.9
20260506014514 50 198 3.5 11.3 0.00 0.06 0.04 75 1007.9
20260506014504 50 198 3.5 7.0 0.00 0.06 0.04 85 1338.0
20260506014015 50 213 3.5 11.3 0.00 0.06 0.04 77 1007.8
20260506014003 50 213 2.6 10.4 0.00 0.07 0.04 85 1337.9
20260506013525 50 225 2.6 4.3 0.00 0.08 0.04 85 1337.7
20260506013515 50 225 3.5 4.3 0.00 0.08 0.04 77 1007.7
20260506013004 50 252 2.6 4.3 0.00 0.08 0.04 85 1337.6
20260506012525 50 306 1.7 6.1 0.00 0.08 0.04 85 1337.7
20260506012515 50 307 2.6 6.1 0.00 0.08 0.04 77 1007.7
20260506012014 49 342 0.9 3.5 0.00 0.08 0.04 77 1007.6
20260506012004 50 342 0.9 3.5 0.00 0.08 0.04 85 1337.5
20260506011504 50 342 1.7 3.5 0.00 0.08 0.04 85 1337.4
20260506011025 50 342 1.7 3.5 0.00 0.08 0.04 84 1337.5
20260506011015 50 341 2.6 3.5 0.00 0.08 0.04 75 1007.5
20260506010514 50 341 0.9 3.5 0.00 0.08 0.04 75 1007.4
20260506010504 50 342 0.9 3.5 0.00 0.08 0.04 84 1337.2
20260506010015 50 341 0.9 3.5 0.00 0.08 0.04 75 1007.4
20260506010004 50 342 0.9 2.6 0.00 0.08 0.04 84 1337.2
20260506005514 50 341 0.9 3.5 0.00 0.08 0.04 75 1007.2
20260506005504 50 341 0.9 3.5 0.00 0.08 0.04 84 1337.1
20260506005004 50 341 0.9 2.6 0.00 0.08 0.04 84 1336.8
20260506004514 50 341 0.9 3.5 0.00 0.08 0.04 75 1007.2
20260506004504 50 341 0.9 3.5 0.00 0.08 0.04 84 1336.9
20260506004015 50 341 0.9 3.5 0.00 0.08 0.04 75 1007.1
20260506004004 50 341 1.7 3.5 0.00 0.08 0.04 84 1336.9
20260506003514 50 340 0.9 3.5 0.00 0.08 0.04 75 1007.1
20260506003504 50 341 0.9 3.5 0.00 0.08 0.04 83 1336.8
20260506003014 50 340 0.9 3.5 0.00 0.08 0.04 74 1007.1
20260506003003 50 340 1.7 3.5 0.00 0.08 0.04 83 1336.8
20260506002524 50 340 1.7 4.3 0.00 0.08 0.04 83 1336.6
20260506002514 50 339 2.6 4.3 0.00 0.08 0.04 74 1006.9
20260506002014 50 339 0.9 4.3 0.00 0.08 0.04 74 1006.9
20260506002004 50 340 0.9 4.3 0.00 0.08 0.04 83 1336.5
20260506001504 50 0 0.0 0.0 0.00 0.08 0.04 83 1336.5
20260506001014 50 0 0.0 0.0 0.00 0.08 0.04 74 1006.7
20260506001004 50 0 0.0 0.0 0.00 0.08 0.04 83 1336.5
20260506000514 50 0 0.0 0.0 0.00 0.08 0.04 74 1006.7
20260506000504 50 0 0.0 0.0 0.00 0.08 0.04 83 1336.3
20260506000014 51 0 0.0 0.0 0.00 0.08 0.04 73 1006.8
20260506000004 51 0 0.0 0.0 0.00 0.08 0.04 82 1336.5
20260505235503 51 0 0.0 0.0 0.00 0.08 0.04 82 1336.4
20260505235014 51 0 0.0 0.0 0.00 0.08 0.04 73 1006.8
20260505235003 51 0 0.0 0.0 0.00 0.08 0.04 82 1336.4
20260505234504 51 0 0.0 0.0 0.00 0.08 0.04 82 1336.1
20260505234014 51 0 0.0 0.0 0.00 0.08 0.04 73 1006.6
20260505234004 51 0 0.0 0.0 0.00 0.08 0.04 82 1336.2
20260505233525 51 0 0.0 0.0 0.00 0.08 0.04 82 1336.4
20260505233513 51 0 0.0 0.0 0.00 0.08 0.04 73 1006.7
20260505233014 51 0 0.0 0.0 0.00 0.08 0.04 73 1006.6
20260505233004 51 0 0.0 0.0 0.00 0.08 0.04 81 1336.2
20260505232514 51 0 0.0 0.0 0.00 0.08 0.04 71 1006.7
20260505232503 51 0 0.0 0.0 0.00 0.08 0.04 81 1336.3
20260505232025 51 0 0.0 0.0 0.00 0.08 0.04 81 1336.3
20260505232014 51 0 0.0 0.0 0.00 0.08 0.04 71 1006.8
20260505231514 51 0 0.0 2.6 0.00 0.08 0.04 71 1006.8
20260505231504 51 336 0.0 0.0 0.00 0.08 0.04 81 1336.5
20260505231014 51 0 0.0 2.6 0.00 0.08 0.04 71 1006.8
20260505231004 51 336 0.0 2.6 0.00 0.08 0.04 81 1336.4
20260505230525 51 336 0.0 2.6 0.00 0.08 0.04 81 1336.5
20260505230514 51 0 0.0 2.6 0.00 0.08 0.04 71 1006.9
20260505230014 51 335 0.9 4.3 0.00 0.08 0.04 71 1006.9
20260505230004 51 336 0.9 0.0 0.00 0.08 0.04 81 1336.5
20260505225525 51 336 0.9 4.3 0.00 0.08 0.04 81 1336.7
20260505225514 51 336 0.9 4.3 0.00 0.08 0.04 71 1007.0
20260505225004 51 336 0.9 2.6 0.00 0.08 0.04 81 1336.6
20260505224514 51 336 0.9 3.5 0.00 0.08 0.04 73 1007.0
20260505224503 51 336 0.9 2.6 0.00 0.08 0.04 82 1336.6
20260505224004 51 336 0.9 3.5 0.00 0.08 0.04 81 1336.7
20260505223504 51 336 0.0 2.6 0.00 0.08 0.04 82 1336.5
20260505223016 51 0 0.0 2.6 0.00 0.08 0.04 73 1007.0
20260505223003 51 336 0.0 2.6 0.00 0.08 0.04 82 1336.6
20260505222514 51 0 0.0 2.6 0.00 0.08 0.04 73 1006.9
20260505222503 51 336 0.0 0.0 0.00 0.08 0.04 82 1336.7
20260505222014 51 0 0.0 2.6 0.00 0.08 0.04 73 1006.9
20260505222003 51 336 0.0 2.6 0.00 0.08 0.04 82 1336.5
20260505221514 51 0 0.0 2.6 0.00 0.08 0.04 73 1006.9
20260505221503 51 336 0.0 2.6 0.00 0.08 0.04 82 1336.6
20260505221014 51 0 0.0 0.9 0.00 0.08 0.04 74 1007.0
20260505221003 51 336 0.0 0.9 0.00 0.08 0.04 83 1336.8
20260505220513 51 0 0.0 3.5 0.00 0.08 0.04 74 1006.9
20260505220504 51 336 0.0 0.0 0.00 0.08 0.04 83 1336.7
20260505220024 50 336 0.0 3.5 0.00 0.08 0.04 83 1336.8
20260505220014 50 0 0.0 3.5 0.00 0.08 0.04 74 1007.0
20260505215504 50 0 0.0 0.9 0.00 0.08 0.04 83 1336.8
20260505215014 50 0 0.0 2.6 0.00 0.08 0.04 74 1007.1
20260505215003 50 336 0.0 0.0 0.00 0.08 0.04 83 1336.8
20260505214514 50 0 0.0 2.6 0.00 0.08 0.04 74 1007.0
20260505214504 50 336 0.0 2.6 0.00 0.08 0.04 83 1336.8
20260505214014 50 0 0.0 2.6 0.00 0.08 0.04 74 1007.0
20260505214004 50 336 0.0 2.6 0.00 0.08 0.04 83 1336.8
20260505213514 50 0 0.0 0.9 0.00 0.08 0.04 74 1007.1
20260505213503 50 336 0.0 0.0 0.00 0.08 0.04 83 1336.7
20260505213014 50 0 0.0 2.6 0.00 0.08 0.04 74 1007.2
20260505213003 50 336 0.9 0.9 0.00 0.08 0.04 83 1336.9
20260505212503 50 336 0.9 3.5 0.00 0.08 0.04 83 1337.0
20260505212025 50 336 0.9 3.5 0.00 0.08 0.04 83 1337.0
20260505212014 50 0 0.0 3.5 0.00 0.08 0.04 74 1007.2
20260505211513 50 0 0.0 2.6 0.00 0.08 0.04 74 1007.1
20260505211503 50 336 0.0 0.9 0.00 0.08 0.04 83 1336.9
20260505211014 50 336 0.9 3.5 0.00 0.08 0.04 74 1007.1
20260505211003 50 336 0.9 2.6 0.00 0.08 0.04 83 1336.8
20260505210503 50 336 0.9 3.5 0.00 0.08 0.04 83 1336.9
20260505210014 50 0 0.0 3.5 0.00 0.08 0.04 74 1007.0
20260505210003 50 336 0.0 3.5 0.00 0.08 0.04 83 1336.9
20260505205503 50 336 0.0 2.6 0.00 0.08 0.04 83 1336.9
20260505205014 50 335 0.9 3.5 0.00 0.08 0.04 74 1007.1
20260505205003 50 335 0.9 2.6 0.00 0.08 0.04 83 1336.9
20260505204513 50 334 0.9 3.5 0.00 0.08 0.04 74 1007.2
20260505204503 50 334 0.9 3.5 0.00 0.08 0.04 83 1336.9
20260505204014 50 332 0.9 3.5 0.00 0.08 0.04 74 1007.1
20260505204003 50 333 0.9 4.3 0.00 0.08 0.04 83 1336.9
20260505203514 50 332 0.9 4.3 0.00 0.08 0.04 74 1007.1
20260505203504 50 332 0.9 2.6 0.00 0.08 0.04 83 1336.9
20260505203013 50 331 0.9 4.3 0.00 0.08 0.04 74 1007.2
20260505203004 50 331 0.9 4.3 0.00 0.08 0.04 83 1337.0
20260505202504 50 330 1.7 3.5 0.00 0.08 0.04 83 1337.1
20260505202014 50 330 2.6 7.0 0.00 0.08 0.04 73 1007.3
20260505202003 50 331 1.7 7.0 0.00 0.08 0.04 82 1337.1
20260505201513 50 331 2.6 6.1 0.00 0.08 0.04 73 1007.4
20260505201504 50 331 1.7 4.3 0.00 0.08 0.04 82 1337.2
20260505201024 50 331 1.7 6.1 0.00 0.08 0.04 82 1337.3
20260505201014 50 331 0.9 6.1 0.00 0.08 0.04 73 1007.5
20260505200513 50 331 0.9 3.5 0.00 0.08 0.04 73 1007.3
20260505200503 50 331 0.9 3.5 0.00 0.08 0.04 82 1337.2
20260505200014 50 331 0.9 6.1 0.00 0.08 0.04 73 1007.3
20260505200004 50 332 0.9 3.5 0.00 0.08 0.04 82 1337.1
20260505195514 50 331 0.9 6.1 0.00 0.08 0.04 73 1007.5
20260505195503 50 332 0.9 6.1 0.01 0.08 0.04 82 1337.2
20260505195014 50 331 0.9 4.3 0.01 0.08 0.04 73 1007.4
20260505195004 50 332 0.9 3.5 0.01 0.08 0.04 82 1337.2
20260505194513 50 331 0.9 4.3 0.02 0.08 0.04 73 1007.3
20260505194503 50 332 0.9 4.3 0.02 0.08 0.04 82 1337.0
20260505194015 50 332 0.9 3.5 0.02 0.08 0.04 71 1007.2
20260505194003 50 332 0.9 3.5 0.02 0.08 0.04 81 1336.9
20260505193514 50 331 0.9 3.5 0.02 0.08 0.04 71 1007.1
20260505193503 50 332 0.9 3.5 0.02 0.08 0.04 81 1336.9
20260505193014 51 335 0.9 6.1 0.02 0.08 0.04 70 1007.0
20260505193003 51 336 1.7 3.5 0.02 0.08 0.04 80 1336.7
20260505192513 51 343 0.9 6.1 0.03 0.08 0.04 70 1006.9
20260505192503 51 343 1.7 6.1 0.03 0.08 0.04 80 1336.4
20260505192003 51 351 0.9 4.3 0.03 0.08 0.04 80 1336.7
20260505191514 51 0 0.0 4.3 0.03 0.08 0.04 69 1006.9
20260505191503 51 352 0.9 4.3 0.03 0.08 0.04 79 1336.5
20260505191014 51 0 0.0 4.3 0.03 0.08 0.04 69 1007.0
20260505191004 51 354 0.0 4.3 0.03 0.08 0.04 79 1336.7
20260505190503 51 360 0.0 0.0 0.04 0.08 0.04 77 1336.4
20260505190014 51 359 0.9 3.5 0.04 0.08 0.04 66 1006.7
20260505190003 52 359 0.9 2.6 0.04 0.08 0.04 77 1336.4
20260505185513 52 355 0.9 4.3 0.03 0.07 0.03 65 1006.8
20260505185503 52 356 0.9 3.5 0.03 0.07 0.03 75 1336.5
20260505185014 52 351 0.9 4.3 0.03 0.07 0.03 65 1006.9
20260505185003 52 351 0.9 4.3 0.03 0.07 0.03 74 1336.6
20260505184514 52 351 0.9 3.5 0.02 0.06 0.02 62 1006.9
20260505184503 52 351 0.9 3.5 0.02 0.06 0.02 73 1336.6
20260505184014 53 0 0.0 3.5 0.02 0.06 0.02 62 1006.8
20260505184003 53 351 0.9 3.5 0.02 0.06 0.02 73 1336.5
20260505183513 53 0 0.0 2.6 0.02 0.06 0.02 61 1006.9
20260505183503 53 351 0.0 2.6 0.02 0.06 0.02 72 1336.6
20260505183014 53 0 0.0 0.9 0.02 0.06 0.02 59 1006.7
20260505183003 53 351 0.0 0.9 0.02 0.06 0.02 71 1336.4
20260505182513 53 0 0.0 2.6 0.01 0.05 0.01 59 1006.7
20260505182503 54 351 0.0 0.9 0.01 0.05 0.01 71 1336.5
20260505182014 54 350 0.9 2.6 0.01 0.05 0.01 58 1006.7
20260505182003 54 351 0.9 2.6 0.01 0.05 0.01 70 1336.4
20260505181524 54 351 0.9 3.5 0.01 0.05 0.01 70 1336.6
20260505181513 54 351 0.9 3.5 0.01 0.05 0.01 58 1006.6
20260505181014 54 350 0.9 3.5 0.01 0.05 0.01 58 1006.6
20260505181003 54 351 0.9 3.5 0.01 0.05 0.01 70 1336.3
20260505180514 54 350 0.9 3.5 0.00 0.04 0.00 57 1006.5
20260505180503 55 351 0.9 2.6 0.00 0.04 0.00 69 1336.2
20260505180014 55 349 0.9 4.3 0.00 0.04 0.00 57 1006.6
20260505180004 55 350 0.9 3.5 0.00 0.04 0.00 69 1336.2
20260505175524 55 350 1.7 6.1 0.00 0.04 0.00 69 1336.0
20260505175514 55 349 0.9 4.3 0.00 0.04 0.00 57 1006.5
20260505175014 55 348 0.9 6.1 0.00 0.04 0.00 55 1006.1
20260505175003 55 348 1.7 4.3 0.00 0.04 0.00 68 1336.1
20260505174513 55 340 0.9 7.0 0.00 0.04 0.00 54 1006.1
20260505174503 56 340 1.7 6.1 0.00 0.04 0.00 67 1335.6
20260505174003 56 331 1.7 7.0 0.00 0.04 0.00 67 1336.2
20260505173513 56 334 2.6 7.0 0.00 0.04 0.00 51 1006.4
20260505173503 56 332 2.6 7.0 0.00 0.04 0.00 64 1335.9
20260505173014 56 351 2.6 7.8 0.00 0.04 0.00 50 1006.5
20260505173003 56 350 2.6 6.1 0.00 0.04 0.00 63 1336.2
20260505172514 56 1 3.5 7.8 0.00 0.04 0.00 49 1006.4
20260505172504 57 360 3.5 9.6 0.00 0.04 0.00 62 1336.0
20260505172013 57 1 2.6 7.0 0.00 0.04 0.00 50 1006.3
20260505172004 57 360 2.6 9.6 0.00 0.04 0.00 63 1335.9
20260505171514 57 1 2.6 7.0 0.00 0.04 0.00 50 1006.2
20260505171503 57 360 2.6 6.1 0.00 0.04 0.00 63 1335.8
20260505171014 57 1 2.6 7.0 0.00 0.04 0.00 50 1005.9
20260505171004 57 360 2.6 7.0 0.00 0.04 0.00 63 1335.4
20260505170524 57 360 2.6 6.1 0.00 0.04 0.00 64 1335.1
20260505170514 57 1 2.6 6.1 0.00 0.04 0.00 51 1005.7
20260505170015 57 1 3.5 6.1 0.00 0.04 0.00 50 1005.7
20260505170003 57 360 3.5 6.1 0.00 0.04 0.00 63 1335.1
20260505165514 57 1 3.5 7.8 0.00 0.04 0.00 51 1005.7
20260505165503 57 360 3.5 9.6 0.00 0.04 0.00 64 1335.0
20260505165013 57 353 3.5 7.8 0.00 0.04 0.00 51 1005.8
20260505165003 57 354 3.5 9.6 0.00 0.04 0.00 64 1335.1
20260505164514 57 352 2.6 7.0 0.00 0.04 0.00 51 1005.5
20260505164503 57 351 2.6 7.0 0.00 0.04 0.00 64 1334.8
20260505164026 57 359 2.6 6.1 0.00 0.04 0.00 66 1334.7
20260505164014 57 359 2.6 7.0 0.00 0.04 0.00 53 1005.5
20260505163513 57 338 2.6 7.8 0.00 0.04 0.00 53 1005.6
20260505163505 57 339 2.6 7.8 0.00 0.04 0.00 66 1335.0
20260505163026 57 328 2.6 9.6 0.00 0.04 0.00 67 1334.8
20260505162526 57 332 1.7 7.0 0.00 0.04 0.00 67 1334.8
20260505162514 57 333 0.9 7.0 0.00 0.04 0.00 54 1005.4
20260505162013 57 357 0.9 4.3 0.00 0.04 0.00 54 1005.3
20260505162005 57 358 0.9 0.9 0.00 0.04 0.00 67 1334.6
20260505161514 57 1 0.9 4.3 0.00 0.04 0.00 54 1005.3
20260505161505 57 360 1.7 4.3 0.00 0.04 0.00 67 1334.5
20260505161014 57 1 2.6 7.8 0.00 0.04 0.00 55 1005.5
20260505161005 57 360 2.6 4.3 0.00 0.04 0.00 68 1334.8
20260505160526 58 360 3.5 9.6 0.00 0.04 0.00 68 1334.9
20260505160513 57 1 3.5 7.8 0.00 0.04 0.00 55 1005.5
20260505153026 57 360 4.3 11.3 0.00 0.04 0.00 67 1334.9
20260505153013 57 1 4.3 11.3 0.00 0.04 0.00 54 1005.7
20260505152514 57 1 3.5 10.4 0.00 0.04 0.00 55 1005.8
20260505152505 58 360 3.5 10.4 0.00 0.04 0.00 67 1335.1
20260505152013 58 1 3.5 7.8 0.00 0.04 0.00 55 1005.6
20260505152005 58 360 3.5 11.3 0.00 0.04 0.00 68 1334.8
20260505151513 58 349 3.5 9.6 0.00 0.04 0.00 54 1005.6
20260505151506 58 350 3.5 9.6 0.00 0.04 0.00 67 1334.9
20260505151015 58 333 3.5 10.4 0.00 0.04 0.00 54 1005.4
20260505151005 58 335 4.3 10.4 0.00 0.04 0.00 67 1334.8
20260505150526 59 329 3.5 11.3 0.00 0.04 0.00 67 1334.3
20260505150513 59 328 3.5 10.4 0.00 0.04 0.00 54 1005.1
20260505140513 56 2 3.5 7.0 0.00 0.04 0.00 61 1004.0
20260505140505 56 360 3.5 7.0 0.00 0.04 0.00 72 1332.9
20260505125013 49 357 2.6 6.1 0.00 0.04 0.00 71 1003.3
20260505125005 50 358 2.6 4.3 0.00 0.04 0.00 81 1331.8
20260505124526 49 358 2.6 6.1 0.00 0.04 0.00 81 1331.9
20260505124514 49 357 3.5 6.1 0.00 0.04 0.00 71 1003.3
20260505124013 49 350 3.5 7.8 0.00 0.04 0.00 71 1003.2
20260505124005 49 350 3.5 9.6 0.00 0.04 0.00 81 1331.6
20260505123504 49 339 3.5 9.6 0.00 0.04 0.00 81 1331.6
20260505123014 49 344 2.6 7.0 0.00 0.04 0.00 71 1002.9
20260505123005 49 345 2.6 7.0 0.00 0.04 0.00 81 1331.4
20260505122514 49 1 3.5 7.8 0.00 0.04 0.00 71 1002.6
20260505122505 49 360 3.5 7.0 0.00 0.04 0.00 81 1330.9
20260505122014 49 1 4.3 10.4 0.00 0.04 0.00 71 1002.5
20260505122004 49 360 4.3 9.6 0.00 0.04 0.00 81 1330.8
20260505121513 50 1 4.3 10.4 0.00 0.04 0.00 71 1002.4
20260505121505 50 360 4.3 13.0 0.00 0.04 0.00 81 1330.8
20260505121014 50 358 3.5 7.8 0.00 0.04 0.00 70 1002.4
20260505121005 50 358 4.3 9.6 0.00 0.04 0.00 80 1330.8
20260505120513 51 358 4.3 13.0 0.00 0.04 0.00 70 1002.2
20260505120505 51 359 5.2 9.6 0.00 0.04 0.00 79 1330.4
20260505120005 52 360 5.2 13.0 0.00 0.04 0.00 79 1330.6
20260505115513 53 357 4.3 10.4 0.00 0.04 0.00 69 1002.3
20260505115505 53 357 4.3 11.3 0.00 0.04 0.00 79 1330.5
20260505115013 54 348 4.3 10.4 0.00 0.04 0.00 69 1002.0
20260505115005 54 350 3.5 10.4 0.00 0.04 0.00 79 1330.1
20260505114513 55 347 3.5 10.4 0.00 0.04 0.00 69 1001.6
20260505114504 56 351 3.5 9.6 0.00 0.04 0.00 79 1329.5
20260505114013 56 348 3.5 10.4 0.00 0.04 0.00 70 1001.4
20260505114004 57 350 2.6 10.4 0.00 0.04 0.00 80 1329.3
20260505113504 58 345 2.6 7.8 0.00 0.04 0.00 81 1328.9
20260505113014 58 351 4.3 11.3 0.00 0.04 0.00 73 1001.0
20260505113005 58 354 4.3 9.6 0.00 0.04 0.00 82 1328.7
20260505112513 58 357 7.0 20.0 0.00 0.04 0.00 73 1000.9
20260505112504 58 359 7.0 13.9 0.00 0.04 0.00 82 1328.5
20260505112013 58 1 4.3 20.0 0.00 0.04 0.00 73 1001.0
20260505112005 58 360 5.2 20.0 0.00 0.04 0.00 82 1328.6
20260505111513 58 359 3.5 17.4 0.00 0.04 0.00 73 1000.8
20260505111505 58 360 3.5 9.6 0.00 0.04 0.00 82 1328.4
20260505111014 58 355 4.3 17.4 0.00 0.04 0.00 73 1000.8
20260505111004 58 357 5.2 17.4 0.00 0.04 0.00 82 1328.4
20260505110504 58 338 3.5 13.0 0.00 0.04 0.00 82 1328.2
20260505102013 59 332 3.5 11.3 0.00 0.04 0.00 71 1000.3
20260505102004 59 330 3.5 11.3 0.00 0.04 0.00 81 1327.8
20260505101513 59 346 3.5 11.3 0.00 0.04 0.00 71 1000.4
20260505101504 59 348 3.5 13.0 0.00 0.04 0.00 81 1327.8
20260505101014 59 359 3.5 13.9 0.00 0.04 0.00 71 1000.4
20260505101004 59 359 3.5 6.1 0.00 0.04 0.00 81 1327.8
20260505100513 59 355 3.5 13.9 0.00 0.04 0.00 71 1000.4
20260505100504 59 355 3.5 13.9 0.00 0.04 0.00 81 1327.9
20260505100004 59 339 3.5 10.4 0.00 0.04 0.00 81 1327.9
20260505095513 59 324 3.5 13.0 0.00 0.04 0.00 71 1000.2
20260505095505 59 324 3.5 10.4 0.00 0.04 0.00 81 1327.8
20260505095014 59 308 3.5 13.0 0.00 0.04 0.00 71 1000.2
20260505095004 59 310 4.3 13.9 0.00 0.04 0.00 81 1327.6
20260505094526 59 295 4.3 11.3 0.00 0.04 0.00 81 1327.6
20260505094513 59 288 3.5 10.4 0.00 0.04 0.00 71 1000.1
20260505094013 59 301 3.5 10.4 0.00 0.04 0.00 71 1000.1
20260505094005 59 312 3.5 9.6 0.00 0.04 0.00 81 1327.6
20260505093525 59 344 2.6 9.6 0.00 0.04 0.00 80 1327.5
20260505093513 59 343 2.6 10.4 0.00 0.04 0.00 70 1000.1
20260505093013 59 356 2.6 10.4 0.00 0.04 0.00 70 1000.0
20260505093004 60 356 2.6 10.4 0.00 0.04 0.00 80 1327.5
20260505092513 59 341 3.5 7.0 0.00 0.04 0.00 70 999.9
20260505092504 60 343 2.6 7.8 0.00 0.04 0.00 80 1327.4
20260505092026 60 339 2.6 7.8 0.00 0.04 0.00 80 1327.1
20260505092013 60 339 3.5 13.0 0.00 0.04 0.00 70 999.7
20260505091525 60 332 3.5 13.0 0.00 0.04 0.00 80 1327.1
20260505091005 60 326 3.5 13.0 0.00 0.04 0.00 79 1327.1
20260505090514 60 341 2.6 10.4 0.00 0.04 0.00 69 999.6
20260505090504 60 342 2.6 10.4 0.00 0.04 0.00 79 1326.8
20260505090013 60 354 2.6 10.4 0.00 0.04 0.00 69 999.6
20260505090005 60 352 2.6 10.4 0.00 0.04 0.00 79 1327.0
20260505085513 60 332 2.6 11.3 0.00 0.04 0.00 69 999.5
20260505085504 60 333 1.7 7.0 0.00 0.04 0.00 79 1326.8
20260505085025 60 282 2.6 11.3 0.00 0.04 0.00 79 1326.8
20260505085013 60 279 2.6 11.3 0.00 0.04 0.00 69 999.6
20260505084526 60 279 3.5 11.3 0.00 0.04 0.00 79 1326.8
20260505084514 60 279 3.5 11.3 0.00 0.04 0.00 69 999.5
20260505084013 60 290 2.6 7.0 0.00 0.04 0.00 69 999.4
20260505084004 60 289 2.6 7.8 0.00 0.04 0.00 79 1326.5
20260505083525 60 289 2.6 7.8 0.00 0.04 0.00 79 1326.5
20260505083513 60 290 2.6 7.0 0.00 0.04 0.00 69 999.4
20260505083014 60 298 2.6 9.6 0.00 0.04 0.00 69 999.2
20260505083005 60 298 1.7 3.5 0.00 0.04 0.00 79 1326.5
20260505082513 60 305 2.6 9.6 0.00 0.04 0.00 67 999.1
20260505082504 61 306 2.6 10.4 0.00 0.04 0.00 78 1326.2
20260505082025 61 296 1.7 6.1 0.00 0.04 0.00 78 1326.1
20260505082013 60 296 2.6 6.1 0.00 0.04 0.00 67 999.1
20260505081513 61 300 2.6 7.0 0.00 0.04 0.00 67 999.0
20260505081505 61 297 2.6 7.8 0.00 0.04 0.00 78 1326.3
20260505081014 61 292 3.5 7.8 0.00 0.04 0.00 67 999.0
20260505081004 61 291 3.5 9.6 0.00 0.04 0.00 77 1326.0
20260505080513 61 289 4.3 17.4 0.00 0.04 0.00 67 998.8
20260505080504 61 287 4.3 9.6 0.00 0.04 0.00 78 1325.9
20260505080014 61 304 3.5 17.4 0.00 0.04 0.00 67 998.9
20260505080004 61 305 3.5 17.4 0.00 0.04 0.00 78 1326.0
20260505075513 61 327 3.5 13.0 0.00 0.04 0.00 67 999.0
20260505075504 61 332 3.5 13.0 0.00 0.04 0.00 77 1326.3
20260505075004 61 352 3.5 7.8 0.00 0.04 0.00 77 1326.0
20260505074513 61 356 2.6 16.5 0.00 0.04 0.00 67 998.8
20260505074504 61 354 3.5 16.5 0.00 0.04 0.00 78 1325.9
20260505074014 61 355 2.6 10.4 0.00 0.04 0.00 67 998.9
20260505074005 61 355 2.6 7.0 0.00 0.04 0.00 77 1326.0
20260505073513 61 358 3.5 10.4 0.00 0.04 0.00 66 998.9
20260505073504 61 358 2.6 13.0 0.00 0.04 0.00 77 1326.0
20260505073013 61 342 3.5 11.3 0.00 0.04 0.00 66 999.0
20260505073004 62 341 3.5 9.6 0.00 0.04 0.00 77 1326.1
20260505072512 62 280 2.6 11.3 0.00 0.04 0.00 66 998.8
20260505072504 62 271 2.6 10.4 0.00 0.04 0.00 77 1326.0
20260505072013 62 250 2.6 7.0 0.00 0.04 0.00 65 998.8
20260505072004 62 245 1.7 6.1 0.00 0.04 0.00 75 1325.9
20260505071512 62 298 2.6 7.8 0.00 0.04 0.00 65 998.9
20260505071504 62 290 1.7 7.8 0.00 0.04 0.00 75 1326.1
20260505071013 62 325 2.6 7.8 0.00 0.04 0.00 65 998.9
20260505071004 62 326 1.7 9.6 0.00 0.04 0.00 75 1326.0
20260505070513 62 337 2.6 7.0 0.00 0.04 0.00 65 998.9
20260505070504 62 337 2.6 7.8 0.00 0.04 0.00 74 1326.1
20260505070005 62 296 2.6 7.0 0.00 0.04 0.00 74 1326.2
20260505065513 62 305 3.5 11.3 0.00 0.04 0.00 63 999.1
20260505065504 62 308 3.5 10.4 0.00 0.04 0.00 74 1326.3
20260505065013 62 341 3.5 11.3 0.00 0.04 0.00 63 999.0
20260505065004 62 344 3.5 13.0 0.00 0.04 0.00 74 1326.1
20260505064525 62 347 3.5 7.0 0.00 0.04 0.00 74 1326.1
20260505064513 62 345 3.5 7.8 0.00 0.04 0.00 63 999.0
20260505064004 62 342 3.5 9.6 0.00 0.04 0.00 74 1326.3
20260505063513 62 346 3.5 13.9 0.00 0.04 0.00 65 999.3
20260505063504 62 345 3.5 11.3 0.00 0.04 0.00 75 1326.4
20260505063013 62 350 4.3 13.9 0.00 0.04 0.00 65 999.3
20260505063004 62 347 3.5 14.8 0.00 0.04 0.00 75 1326.6
20260505062505 62 351 4.3 10.4 0.00 0.04 0.00 75 1326.8
20260505062014 62 358 3.5 14.8 0.00 0.04 0.00 66 999.5
20260505062004 62 358 3.5 13.0 0.00 0.04 0.00 77 1326.9
20260505061513 61 1 3.5 14.8 0.00 0.04 0.00 66 999.5
20260505061504 61 360 3.5 14.8 0.00 0.04 0.00 77 1326.9
20260505061013 61 1 3.5 11.3 0.00 0.04 0.00 66 999.6
20260505061004 61 360 3.5 13.9 0.00 0.04 0.00 77 1326.9
20260505060512 61 1 3.5 7.8 0.00 0.04 0.00 66 999.6
20260505060504 61 360 3.5 11.3 0.00 0.04 0.00 77 1327.0
20260505060013 61 359 2.6 7.8 0.00 0.04 0.00 67 999.6
20260505060004 61 359 2.6 9.6 0.00 0.04 0.00 77 1327.2
20260505055504 61 314 2.6 9.6 0.00 0.04 0.00 77 1327.1
20260505055026 61 243 3.5 7.8 0.00 0.04 0.00 78 1327.2
20260505055013 61 255 3.5 13.0 0.00 0.04 0.00 67 999.9